Year,Month,Day,Hour,Minute,Value (Times are PST for temperature in C)
2021,07,29,00,00,21.60
2021,07,29,00,01,21.60
2021,07,29,00,02,21.60
2021,07,29,00,03,21.50
2021,07,29,00,04,21.50
2021,07,29,00,05,21.40
2021,07,29,00,06,21.40
2021,07,29,00,07,21.40
2021,07,29,00,08,21.30
2021,07,29,00,09,21.30
2021,07,29,00,10,21.30
2021,07,29,00,11,21.20
2021,07,29,00,12,21.20
2021,07,29,00,13,21.20
2021,07,29,00,14,21.10
2021,07,29,00,15,21.10
2021,07,29,00,16,21.00
2021,07,29,00,17,21.00
2021,07,29,00,18,20.90
2021,07,29,00,19,20.90
2021,07,29,00,20,20.90
2021,07,29,00,21,20.80
2021,07,29,00,22,20.80
2021,07,29,00,23,20.80
2021,07,29,00,24,20.80
2021,07,29,00,25,20.80
2021,07,29,00,26,20.80
2021,07,29,00,27,20.70
2021,07,29,00,28,20.70
2021,07,29,00,29,20.70
2021,07,29,00,30,20.70
2021,07,29,00,31,20.60
2021,07,29,00,32,20.60
2021,07,29,00,33,20.60
2021,07,29,00,34,20.60
2021,07,29,00,35,20.60
2021,07,29,00,36,20.60
2021,07,29,00,37,20.50
2021,07,29,00,38,20.50
2021,07,29,00,39,20.50
2021,07,29,00,40,20.40
2021,07,29,00,41,20.40
2021,07,29,00,42,20.40
2021,07,29,00,43,20.40
2021,07,29,00,44,20.40
2021,07,29,00,45,20.30
2021,07,29,00,46,20.30
2021,07,29,00,47,20.30
2021,07,29,00,48,20.30
2021,07,29,00,49,20.30
2021,07,29,00,50,20.30
2021,07,29,00,51,20.20
2021,07,29,00,52,20.20
2021,07,29,00,53,20.20
2021,07,29,00,54,20.20
2021,07,29,00,55,20.10
2021,07,29,00,56,20.10
2021,07,29,00,57,20.10
2021,07,29,00,58,20.10
2021,07,29,00,59,20.10
2021,07,29,01,00,20.10
2021,07,29,01,01,20.10
2021,07,29,01,02,20.00
2021,07,29,01,03,20.00
2021,07,29,01,04,20.00
2021,07,29,01,05,20.00
2021,07,29,01,06,20.00
2021,07,29,01,07,20.00
2021,07,29,01,08,20.00
2021,07,29,01,09,19.90
2021,07,29,01,10,19.90
2021,07,29,01,11,19.90
2021,07,29,01,12,19.90
2021,07,29,01,13,19.90
2021,07,29,01,14,19.90
2021,07,29,01,15,19.90
2021,07,29,01,16,19.80
2021,07,29,01,17,19.80
2021,07,29,01,18,19.80
2021,07,29,01,19,19.80
2021,07,29,01,20,19.80
2021,07,29,01,21,19.80
2021,07,29,01,22,19.70
2021,07,29,01,23,19.70
2021,07,29,01,24,19.70
2021,07,29,01,25,19.70
2021,07,29,01,26,19.60
2021,07,29,01,27,19.60
2021,07,29,01,28,19.60
2021,07,29,01,29,19.60
2021,07,29,01,30,19.50
2021,07,29,01,31,19.50
2021,07,29,01,32,19.50
2021,07,29,01,33,19.50
2021,07,29,01,34,19.50
2021,07,29,01,35,19.40
2021,07,29,01,36,19.40
2021,07,29,01,37,19.40
2021,07,29,01,38,19.40
2021,07,29,01,39,19.40
2021,07,29,01,40,19.40
2021,07,29,01,41,19.40
2021,07,29,01,42,19.40
2021,07,29,01,43,19.40
2021,07,29,01,44,19.40
2021,07,29,01,45,19.40
2021,07,29,01,46,19.40
2021,07,29,01,47,19.40
2021,07,29,01,48,19.40
2021,07,29,01,49,19.40
2021,07,29,01,50,19.40
2021,07,29,01,51,19.50
2021,07,29,01,52,19.50
2021,07,29,01,53,19.50
2021,07,29,01,54,19.50
2021,07,29,01,55,19.50
2021,07,29,01,56,19.50
2021,07,29,01,57,19.40
2021,07,29,01,58,19.40
2021,07,29,01,59,19.40
2021,07,29,02,00,19.40
2021,07,29,02,01,19.40
2021,07,29,02,02,19.40
2021,07,29,02,03,19.40
2021,07,29,02,04,19.40
2021,07,29,02,05,19.40
2021,07,29,02,06,19.40
2021,07,29,02,07,19.30
2021,07,29,02,08,19.30
2021,07,29,02,09,19.30
2021,07,29,02,10,19.30
2021,07,29,02,11,19.30
2021,07,29,02,12,19.30
2021,07,29,02,13,19.30
2021,07,29,02,14,19.30
2021,07,29,02,15,19.30
2021,07,29,02,16,19.30
2021,07,29,02,17,19.30
2021,07,29,02,18,19.20
2021,07,29,02,19,19.20
2021,07,29,02,20,19.20
2021,07,29,02,21,19.20
2021,07,29,02,22,19.20
2021,07,29,02,23,19.20
2021,07,29,02,24,19.10
2021,07,29,02,25,19.10
2021,07,29,02,26,19.10
2021,07,29,02,27,19.00
2021,07,29,02,28,19.00
2021,07,29,02,29,18.90
2021,07,29,02,30,18.90
2021,07,29,02,31,18.90
2021,07,29,02,32,18.90
2021,07,29,02,33,18.90
2021,07,29,02,34,18.90
2021,07,29,02,35,18.80
2021,07,29,02,36,18.80
2021,07,29,02,37,18.80
2021,07,29,02,38,18.80
2021,07,29,02,39,18.80
2021,07,29,02,40,18.80
2021,07,29,02,41,18.70
2021,07,29,02,42,18.70
2021,07,29,02,43,18.70
2021,07,29,02,44,18.70
2021,07,29,02,45,18.60
2021,07,29,02,46,18.60
2021,07,29,02,47,18.60
2021,07,29,02,48,18.60
2021,07,29,02,49,18.60
2021,07,29,02,50,18.50
2021,07,29,02,51,18.50
2021,07,29,02,52,18.40
2021,07,29,02,53,18.40
2021,07,29,02,54,18.40
2021,07,29,02,55,18.30
2021,07,29,02,56,18.30
2021,07,29,02,57,18.20
2021,07,29,02,58,18.20
2021,07,29,02,59,18.20
2021,07,29,03,00,18.10
2021,07,29,03,01,18.10
2021,07,29,03,02,18.10
2021,07,29,03,03,18.00
2021,07,29,03,04,18.00
2021,07,29,03,05,18.00
2021,07,29,03,06,17.90
2021,07,29,03,07,17.90
2021,07,29,03,08,17.90
2021,07,29,03,09,17.90
2021,07,29,03,10,17.80
2021,07,29,03,11,17.80
2021,07,29,03,12,17.80
2021,07,29,03,13,17.80
2021,07,29,03,14,17.80
2021,07,29,03,15,17.70
2021,07,29,03,16,17.70
2021,07,29,03,17,17.70
2021,07,29,03,18,17.70
2021,07,29,03,19,17.70
2021,07,29,03,20,17.70
2021,07,29,03,21,17.70
2021,07,29,03,22,17.70
2021,07,29,03,23,17.70
2021,07,29,03,24,17.70
2021,07,29,03,25,17.60
2021,07,29,03,26,17.70
2021,07,29,03,27,17.60
2021,07,29,03,28,17.60
2021,07,29,03,29,17.60
2021,07,29,03,30,17.60
2021,07,29,03,31,17.50
2021,07,29,03,32,17.50
2021,07,29,03,33,17.50
2021,07,29,03,34,17.50
2021,07,29,03,35,17.40
2021,07,29,03,36,17.40
2021,07,29,03,37,17.40
2021,07,29,03,38,17.40
2021,07,29,03,39,17.40
2021,07,29,03,40,17.40
2021,07,29,03,41,17.30
2021,07,29,03,42,17.30
2021,07,29,03,43,17.30
2021,07,29,03,44,17.30
2021,07,29,03,45,17.30
2021,07,29,03,46,17.30
2021,07,29,03,47,17.30
2021,07,29,03,48,17.30
2021,07,29,03,49,17.30
2021,07,29,03,50,17.20
2021,07,29,03,51,17.20
2021,07,29,03,52,17.20
2021,07,29,03,53,17.20
2021,07,29,03,54,17.20
2021,07,29,03,55,17.20
2021,07,29,03,56,17.20
2021,07,29,03,57,17.20
2021,07,29,03,58,17.20
2021,07,29,03,59,17.20
2021,07,29,04,00,17.20
2021,07,29,04,01,17.20
2021,07,29,04,02,17.20
2021,07,29,04,03,17.20
2021,07,29,04,04,17.10
2021,07,29,04,05,17.10
2021,07,29,04,06,17.10
2021,07,29,04,07,17.10
2021,07,29,04,08,17.10
2021,07,29,04,09,17.10
2021,07,29,04,10,17.10
2021,07,29,04,11,17.10
2021,07,29,04,12,17.10
2021,07,29,04,13,17.10
2021,07,29,04,14,17.00
2021,07,29,04,15,17.00
2021,07,29,04,16,17.00
2021,07,29,04,17,17.00
2021,07,29,04,18,17.00
2021,07,29,04,19,17.00
2021,07,29,04,20,17.00
2021,07,29,04,21,17.00
2021,07,29,04,22,17.00
2021,07,29,04,23,16.90
2021,07,29,04,24,16.90
2021,07,29,04,25,16.90
2021,07,29,04,26,16.90
2021,07,29,04,27,16.90
2021,07,29,04,28,16.80
2021,07,29,04,29,16.80
2021,07,29,04,30,16.80
2021,07,29,04,31,16.80
2021,07,29,04,32,16.80
2021,07,29,04,33,16.80
2021,07,29,04,34,16.80
2021,07,29,04,35,16.80
2021,07,29,04,36,16.80
2021,07,29,04,37,16.80
2021,07,29,04,38,16.80
2021,07,29,04,39,16.80
2021,07,29,04,40,16.80
2021,07,29,04,41,16.80
2021,07,29,04,42,16.80
2021,07,29,04,43,16.80
2021,07,29,04,44,16.80
2021,07,29,04,45,16.70
2021,07,29,04,46,16.70
2021,07,29,04,47,16.70
2021,07,29,04,48,16.70
2021,07,29,04,49,16.70
2021,07,29,04,50,16.70
2021,07,29,04,51,16.60
2021,07,29,04,52,16.60
2021,07,29,04,53,16.60
2021,07,29,04,54,16.60
2021,07,29,04,55,16.60
2021,07,29,04,56,16.50
2021,07,29,04,57,16.50
2021,07,29,04,58,16.50
2021,07,29,04,59,16.50
2021,07,29,05,00,16.50
2021,07,29,05,01,16.50
2021,07,29,05,02,16.50
2021,07,29,05,03,16.50
2021,07,29,05,04,16.50
2021,07,29,05,05,16.40
2021,07,29,05,06,16.40
2021,07,29,05,07,16.40
2021,07,29,05,08,16.40
2021,07,29,05,09,16.30
2021,07,29,05,10,16.30
2021,07,29,05,11,16.30
2021,07,29,05,12,16.30
2021,07,29,05,13,16.30
2021,07,29,05,14,16.30
2021,07,29,05,15,16.30
2021,07,29,05,16,16.30
2021,07,29,05,17,16.20
2021,07,29,05,18,16.20
2021,07,29,05,19,16.20
2021,07,29,05,20,16.20
2021,07,29,05,21,16.20
2021,07,29,05,22,16.20
2021,07,29,05,23,16.20
2021,07,29,05,24,16.20
2021,07,29,05,25,16.20
2021,07,29,05,26,16.10
2021,07,29,05,27,16.10
2021,07,29,05,28,16.10
2021,07,29,05,29,16.10
2021,07,29,05,30,16.10
2021,07,29,05,31,16.10
2021,07,29,05,32,16.10
2021,07,29,05,33,16.10
2021,07,29,05,34,16.00
2021,07,29,05,35,16.00
2021,07,29,05,36,16.00
2021,07,29,05,37,16.00
2021,07,29,05,38,16.00
2021,07,29,05,39,16.00
2021,07,29,05,40,16.00
2021,07,29,05,41,16.00
2021,07,29,05,42,15.90
2021,07,29,05,43,15.90
2021,07,29,05,44,15.90
2021,07,29,05,45,15.90
2021,07,29,05,46,15.90
2021,07,29,05,47,15.90
2021,07,29,05,48,15.90
2021,07,29,05,49,15.90
2021,07,29,05,50,15.90
2021,07,29,05,51,15.90
2021,07,29,05,52,15.90
2021,07,29,05,53,15.90
2021,07,29,05,54,15.90
2021,07,29,05,55,15.90
2021,07,29,05,56,15.90
2021,07,29,05,57,15.80
2021,07,29,05,58,15.80
2021,07,29,05,59,15.80
2021,07,29,06,00,15.80
2021,07,29,06,01,15.80
2021,07,29,06,02,15.80
2021,07,29,06,03,15.80
2021,07,29,06,04,15.80
2021,07,29,06,05,15.80
2021,07,29,06,06,15.80
2021,07,29,06,07,15.70
2021,07,29,06,08,15.70
2021,07,29,06,09,15.70
2021,07,29,06,10,15.70
2021,07,29,06,11,15.70
2021,07,29,06,12,15.70
2021,07,29,06,13,15.70
2021,07,29,06,14,15.80
2021,07,29,06,15,15.80
2021,07,29,06,16,15.80
2021,07,29,06,17,15.80
2021,07,29,06,18,15.80
2021,07,29,06,19,15.80
2021,07,29,06,20,15.80
2021,07,29,06,21,15.80
2021,07,29,06,22,15.80
2021,07,29,06,23,15.80
2021,07,29,06,24,15.80
2021,07,29,06,25,15.80
2021,07,29,06,26,15.80
2021,07,29,06,27,15.80
2021,07,29,06,28,15.80
2021,07,29,06,29,15.90
2021,07,29,06,30,15.90
2021,07,29,06,31,15.90
2021,07,29,06,32,15.90
2021,07,29,06,33,16.00
2021,07,29,06,34,16.00
2021,07,29,06,35,16.00
2021,07,29,06,36,16.10
2021,07,29,06,37,16.10
2021,07,29,06,38,16.10
2021,07,29,06,39,16.10
2021,07,29,06,40,16.20
2021,07,29,06,41,16.20
2021,07,29,06,42,16.20
2021,07,29,06,43,16.20
2021,07,29,06,44,16.30
2021,07,29,06,45,16.30
2021,07,29,06,46,16.30
2021,07,29,06,47,16.30
2021,07,29,06,48,16.30
2021,07,29,06,49,16.30
2021,07,29,06,50,16.30
2021,07,29,06,51,16.30
2021,07,29,06,52,16.40
2021,07,29,06,53,16.40
2021,07,29,06,54,16.40
2021,07,29,06,55,16.40
2021,07,29,06,56,16.40
2021,07,29,06,57,16.40
2021,07,29,06,58,16.50
2021,07,29,06,59,16.50
2021,07,29,07,00,16.50
2021,07,29,07,01,16.60
2021,07,29,07,02,16.60
2021,07,29,07,03,16.60
2021,07,29,07,04,16.60
2021,07,29,07,05,16.70
2021,07,29,07,06,16.70
2021,07,29,07,07,16.80
2021,07,29,07,08,16.80
2021,07,29,07,09,16.80
2021,07,29,07,10,16.90
2021,07,29,07,11,16.90
2021,07,29,07,12,17.00
2021,07,29,07,13,17.00
2021,07,29,07,14,17.00
2021,07,29,07,15,17.10
2021,07,29,07,16,17.20
2021,07,29,07,17,17.20
2021,07,29,07,18,17.30
2021,07,29,07,19,17.30
2021,07,29,07,20,17.30
2021,07,29,07,21,17.40
2021,07,29,07,22,17.50
2021,07,29,07,23,17.50
2021,07,29,07,24,17.60
2021,07,29,07,25,17.70
2021,07,29,07,26,17.70
2021,07,29,07,27,17.80
2021,07,29,07,28,17.80
2021,07,29,07,29,17.90
2021,07,29,07,30,18.00
2021,07,29,07,31,18.10
2021,07,29,07,32,18.10
2021,07,29,07,33,18.20
2021,07,29,07,34,18.30
2021,07,29,07,35,18.30
2021,07,29,07,36,18.40
2021,07,29,07,37,18.50
2021,07,29,07,38,18.50
2021,07,29,07,39,18.60
2021,07,29,07,40,18.70
2021,07,29,07,41,18.70
2021,07,29,07,42,18.80
2021,07,29,07,43,18.90
2021,07,29,07,44,18.90
2021,07,29,07,45,19.00
2021,07,29,07,46,19.10
2021,07,29,07,47,19.10
2021,07,29,07,48,19.20
2021,07,29,07,49,19.20
2021,07,29,07,50,19.30
2021,07,29,07,51,19.30
2021,07,29,07,52,19.30
2021,07,29,07,53,19.40
2021,07,29,07,54,19.50
2021,07,29,07,55,19.50
2021,07,29,07,56,19.60
2021,07,29,07,57,19.70
2021,07,29,07,58,19.80
2021,07,29,07,59,19.80
2021,07,29,08,00,19.90
2021,07,29,08,01,19.90
2021,07,29,08,02,20.00
2021,07,29,08,03,20.00
2021,07,29,08,04,20.10
2021,07,29,08,05,20.10
2021,07,29,08,06,20.20
2021,07,29,08,07,20.20
2021,07,29,08,08,20.20
2021,07,29,08,09,20.20
2021,07,29,08,10,20.30
2021,07,29,08,11,20.30
2021,07,29,08,12,20.30
2021,07,29,08,13,20.30
2021,07,29,08,14,20.40
2021,07,29,08,15,20.40
2021,07,29,08,16,20.40
2021,07,29,08,17,20.40
2021,07,29,08,18,20.50
2021,07,29,08,19,20.50
2021,07,29,08,20,20.50
2021,07,29,08,21,20.50
2021,07,29,08,22,20.60
2021,07,29,08,23,20.70
2021,07,29,08,24,20.70
2021,07,29,08,25,20.80
2021,07,29,08,26,20.80
2021,07,29,08,27,20.80
2021,07,29,08,28,20.80
2021,07,29,08,29,20.80
2021,07,29,08,30,20.80
2021,07,29,08,31,20.80
2021,07,29,08,32,20.70
2021,07,29,08,33,20.70
2021,07,29,08,34,20.70
2021,07,29,08,35,20.70
2021,07,29,08,36,20.80
2021,07,29,08,37,20.80
2021,07,29,08,38,20.90
2021,07,29,08,39,20.90
2021,07,29,08,40,20.90
2021,07,29,08,41,21.00
2021,07,29,08,42,21.00
2021,07,29,08,43,21.10
2021,07,29,08,44,21.10
2021,07,29,08,45,21.10
2021,07,29,08,46,21.10
2021,07,29,08,47,21.10
2021,07,29,08,48,21.10
2021,07,29,08,49,21.20
2021,07,29,08,50,21.20
2021,07,29,08,51,21.30
2021,07,29,08,52,21.30
2021,07,29,08,53,21.30
2021,07,29,08,54,21.30
2021,07,29,08,55,21.40
2021,07,29,08,56,21.40
2021,07,29,08,57,21.40
2021,07,29,08,58,21.50
2021,07,29,08,59,21.50
2021,07,29,09,00,21.60
2021,07,29,09,01,21.60
2021,07,29,09,02,21.70
2021,07,29,09,03,21.70
2021,07,29,09,04,21.80
2021,07,29,09,05,21.90
2021,07,29,09,06,21.90
2021,07,29,09,07,22.00
2021,07,29,09,08,22.00
2021,07,29,09,09,22.10
2021,07,29,09,10,22.20
2021,07,29,09,11,22.20
2021,07,29,09,12,22.30
2021,07,29,09,13,22.30
2021,07,29,09,14,22.30
2021,07,29,09,15,22.40
2021,07,29,09,16,22.50
2021,07,29,09,17,22.50
2021,07,29,09,18,22.50
2021,07,29,09,19,22.60
2021,07,29,09,20,22.70
2021,07,29,09,21,22.70
2021,07,29,09,22,22.70
2021,07,29,09,23,22.70
2021,07,29,09,24,22.80
2021,07,29,09,25,22.80
2021,07,29,09,26,22.80
2021,07,29,09,27,22.80
2021,07,29,09,28,22.80
2021,07,29,09,29,22.90
2021,07,29,09,30,22.90
2021,07,29,09,31,23.00
2021,07,29,09,32,23.10
2021,07,29,09,33,23.10
2021,07,29,09,34,23.20
2021,07,29,09,35,23.30
2021,07,29,09,36,23.40
2021,07,29,09,37,23.50
2021,07,29,09,38,23.60
2021,07,29,09,39,23.70
2021,07,29,09,40,23.90
2021,07,29,09,41,24.00
2021,07,29,09,42,24.10
2021,07,29,09,43,24.20
2021,07,29,09,44,24.30
2021,07,29,09,45,24.40
2021,07,29,09,46,24.50
2021,07,29,09,47,24.60
2021,07,29,09,48,24.70
2021,07,29,09,49,24.70
2021,07,29,09,50,24.70
2021,07,29,09,51,24.70
2021,07,29,09,52,24.60
2021,07,29,09,53,24.50
2021,07,29,09,54,24.40
2021,07,29,09,55,24.40
2021,07,29,09,56,24.30
2021,07,29,09,57,24.30
2021,07,29,09,58,24.30
2021,07,29,09,59,24.30
2021,07,29,10,00,24.20
2021,07,29,10,01,24.30
2021,07,29,10,02,24.30
2021,07,29,10,03,24.30
2021,07,29,10,04,24.40
2021,07,29,10,05,24.40
2021,07,29,10,06,24.40
2021,07,29,10,07,24.40
2021,07,29,10,08,24.40
2021,07,29,10,09,24.40
2021,07,29,10,10,24.40
2021,07,29,10,11,24.40
2021,07,29,10,12,24.50
2021,07,29,10,13,24.50
2021,07,29,10,14,24.50
2021,07,29,10,15,24.60
2021,07,29,10,16,24.60
2021,07,29,10,17,24.60
2021,07,29,10,18,24.60
2021,07,29,10,19,24.70
2021,07,29,10,20,24.80
2021,07,29,10,21,24.80
2021,07,29,10,22,24.90
2021,07,29,10,23,24.90
2021,07,29,10,24,25.00
2021,07,29,10,25,25.00
2021,07,29,10,26,25.10
2021,07,29,10,27,25.20
2021,07,29,10,28,25.20
2021,07,29,10,29,25.30
2021,07,29,10,30,25.30
2021,07,29,10,31,25.30
2021,07,29,10,32,25.20
2021,07,29,10,33,25.20
2021,07,29,10,34,25.10
2021,07,29,10,35,25.10
2021,07,29,10,36,25.20
2021,07,29,10,37,25.20
2021,07,29,10,38,25.30
2021,07,29,10,39,25.30
2021,07,29,10,40,25.30
2021,07,29,10,41,25.30
2021,07,29,10,42,25.30
2021,07,29,10,43,25.30
2021,07,29,10,44,25.40
2021,07,29,10,45,25.40
2021,07,29,10,46,25.50
2021,07,29,10,47,25.60
2021,07,29,10,48,25.70
2021,07,29,10,49,25.70
2021,07,29,10,50,25.80
2021,07,29,10,51,25.80
2021,07,29,10,52,25.80
2021,07,29,10,53,25.80
2021,07,29,10,54,25.80
2021,07,29,10,55,25.90
2021,07,29,10,56,25.90
2021,07,29,10,57,25.90
2021,07,29,10,58,25.90
2021,07,29,10,59,25.90
2021,07,29,11,00,25.90
2021,07,29,11,01,25.80
2021,07,29,11,02,25.80
2021,07,29,11,03,25.80
2021,07,29,11,04,25.80
2021,07,29,11,05,25.80
2021,07,29,11,06,25.90
2021,07,29,11,07,26.00
2021,07,29,11,08,26.10
2021,07,29,11,09,26.10
2021,07,29,11,10,26.20
2021,07,29,11,11,26.20
2021,07,29,11,12,26.10
2021,07,29,11,13,26.10
2021,07,29,11,14,26.10
2021,07,29,11,15,26.10
2021,07,29,11,16,26.10
2021,07,29,11,17,26.10
2021,07,29,11,18,26.10
2021,07,29,11,19,26.20
2021,07,29,11,20,26.20
2021,07,29,11,21,26.30
2021,07,29,11,22,26.30
2021,07,29,11,23,26.40
2021,07,29,11,24,26.40
2021,07,29,11,25,26.50
2021,07,29,11,26,26.50
2021,07,29,11,27,26.60
2021,07,29,11,28,26.60
2021,07,29,11,29,26.60
2021,07,29,11,30,26.60
2021,07,29,11,31,26.60
2021,07,29,11,32,26.60
2021,07,29,11,33,26.60
2021,07,29,11,34,26.60
2021,07,29,11,35,26.50
2021,07,29,11,36,26.50
2021,07,29,11,37,26.50
2021,07,29,11,38,26.40
2021,07,29,11,39,26.40
2021,07,29,11,40,26.50
2021,07,29,11,41,26.50
2021,07,29,11,42,26.60
2021,07,29,11,43,26.60
2021,07,29,11,44,26.60
2021,07,29,11,45,26.60
2021,07,29,11,46,26.60
2021,07,29,11,47,26.60
2021,07,29,11,48,26.60
2021,07,29,11,49,26.60
2021,07,29,11,50,26.70
2021,07,29,11,51,26.70
2021,07,29,11,52,26.80
2021,07,29,11,53,26.80
2021,07,29,11,54,26.90
2021,07,29,11,55,26.90
2021,07,29,11,56,26.90
2021,07,29,11,57,26.90
2021,07,29,11,58,26.80
2021,07,29,11,59,26.80
2021,07,29,12,00,26.80
2021,07,29,12,01,26.80
2021,07,29,12,02,26.90
2021,07,29,12,03,27.00
2021,07,29,12,04,27.10
2021,07,29,12,05,27.10
2021,07,29,12,06,27.20
2021,07,29,12,07,27.20
2021,07,29,12,08,27.20
2021,07,29,12,09,27.20
2021,07,29,12,10,27.10
2021,07,29,12,11,27.00
2021,07,29,12,12,26.90
2021,07,29,12,13,26.80
2021,07,29,12,14,26.80
2021,07,29,12,15,26.80
2021,07,29,12,16,26.80
2021,07,29,12,17,26.80
2021,07,29,12,18,26.90
2021,07,29,12,19,26.90
2021,07,29,12,20,27.00
2021,07,29,12,21,27.10
2021,07,29,12,22,27.10
2021,07,29,12,23,27.30
2021,07,29,12,24,27.40
2021,07,29,12,25,27.50
2021,07,29,12,26,27.60
2021,07,29,12,27,27.70
2021,07,29,12,28,27.80
2021,07,29,12,29,27.80
2021,07,29,12,30,27.80
2021,07,29,12,31,27.80
2021,07,29,12,32,27.80
2021,07,29,12,33,27.80
2021,07,29,12,34,27.80
2021,07,29,12,35,27.80
2021,07,29,12,36,27.80
2021,07,29,12,37,27.90
2021,07,29,12,38,27.90
2021,07,29,12,39,27.90
2021,07,29,12,40,27.90
2021,07,29,12,41,27.90
2021,07,29,12,42,28.00
2021,07,29,12,43,28.00
2021,07,29,12,44,28.10
2021,07,29,12,45,28.10
2021,07,29,12,46,28.20
2021,07,29,12,47,28.20
2021,07,29,12,48,28.20
2021,07,29,12,49,28.30
2021,07,29,12,50,28.30
2021,07,29,12,51,28.30
2021,07,29,12,52,28.30
2021,07,29,12,53,28.30
2021,07,29,12,54,28.30
2021,07,29,12,55,28.30
2021,07,29,12,56,28.30
2021,07,29,12,57,28.40
2021,07,29,12,58,28.40
2021,07,29,12,59,28.40
2021,07,29,13,00,28.50
2021,07,29,13,01,28.50
2021,07,29,13,02,28.50
2021,07,29,13,03,28.60
2021,07,29,13,04,28.60
2021,07,29,13,05,28.70
2021,07,29,13,06,28.70
2021,07,29,13,07,28.80
2021,07,29,13,08,28.80
2021,07,29,13,09,28.80
2021,07,29,13,10,28.90
2021,07,29,13,11,28.90
2021,07,29,13,12,28.90
2021,07,29,13,13,28.90
2021,07,29,13,14,28.90
2021,07,29,13,15,28.90
2021,07,29,13,16,28.90
2021,07,29,13,17,28.80
2021,07,29,13,18,28.70
2021,07,29,13,19,28.70
2021,07,29,13,20,28.70
2021,07,29,13,21,28.70
2021,07,29,13,22,28.70
2021,07,29,13,23,28.60
2021,07,29,13,24,28.60
2021,07,29,13,25,28.50
2021,07,29,13,26,28.60
2021,07,29,13,27,28.60
2021,07,29,13,28,28.60
2021,07,29,13,29,28.60
2021,07,29,13,30,28.60
2021,07,29,13,31,28.60
2021,07,29,13,32,28.60
2021,07,29,13,33,28.70
2021,07,29,13,34,28.80
2021,07,29,13,35,28.80
2021,07,29,13,36,28.80
2021,07,29,13,37,28.80
2021,07,29,13,38,28.80
2021,07,29,13,39,28.70
2021,07,29,13,40,28.80
2021,07,29,13,41,28.80
2021,07,29,13,42,28.80
2021,07,29,13,43,28.80
2021,07,29,13,44,28.90
2021,07,29,13,45,28.80
2021,07,29,13,46,28.80
2021,07,29,13,47,28.70
2021,07,29,13,48,28.60
2021,07,29,13,49,28.50
2021,07,29,13,50,28.50
2021,07,29,13,51,28.40
2021,07,29,13,52,28.40
2021,07,29,13,53,28.40
2021,07,29,13,54,28.40
2021,07,29,13,55,28.40
2021,07,29,13,56,28.40
2021,07,29,13,57,28.30
2021,07,29,13,58,28.30
2021,07,29,13,59,28.30
2021,07,29,14,00,28.30
2021,07,29,14,01,28.30
2021,07,29,14,02,28.30
2021,07,29,14,03,28.30
2021,07,29,14,04,28.20
2021,07,29,14,05,28.20
2021,07,29,14,06,28.20
2021,07,29,14,07,28.20
2021,07,29,14,08,28.30
2021,07,29,14,09,28.30
2021,07,29,14,10,28.30
2021,07,29,14,11,28.30
2021,07,29,14,12,28.20
2021,07,29,14,13,28.00
2021,07,29,14,14,28.00
2021,07,29,14,15,27.90
2021,07,29,14,16,27.90
2021,07,29,14,17,27.80
2021,07,29,14,18,27.80
2021,07,29,14,19,27.80
2021,07,29,14,20,27.80
2021,07,29,14,21,27.70
2021,07,29,14,22,27.70
2021,07,29,14,23,27.70
2021,07,29,14,24,27.60
2021,07,29,14,25,27.50
2021,07,29,14,26,27.30
2021,07,29,14,27,27.20
2021,07,29,14,28,27.10
2021,07,29,14,29,27.00
2021,07,29,14,30,27.00
2021,07,29,14,31,26.90
2021,07,29,14,32,26.90
2021,07,29,14,33,26.90
2021,07,29,14,34,26.80
2021,07,29,14,35,26.80
2021,07,29,14,36,26.80
2021,07,29,14,37,26.80
2021,07,29,14,38,26.80
2021,07,29,14,39,26.90
2021,07,29,14,40,27.00
2021,07,29,14,41,27.00
2021,07,29,14,42,27.10
2021,07,29,14,43,27.10
2021,07,29,14,44,27.20
2021,07,29,14,45,27.30
2021,07,29,14,46,27.40
2021,07,29,14,47,27.50
2021,07,29,14,48,27.50
2021,07,29,14,49,27.60
2021,07,29,14,50,27.70
2021,07,29,14,51,27.70
2021,07,29,14,52,27.70
2021,07,29,14,53,27.70
2021,07,29,14,54,27.70
2021,07,29,14,55,27.70
2021,07,29,14,56,27.70
2021,07,29,14,57,27.70
2021,07,29,14,58,27.70
2021,07,29,14,59,27.80
2021,07,29,15,00,27.80
2021,07,29,15,01,27.80
2021,07,29,15,02,27.80
2021,07,29,15,03,27.80
2021,07,29,15,04,27.80
2021,07,29,15,05,27.90
2021,07,29,15,06,27.90
2021,07,29,15,07,27.90
2021,07,29,15,08,27.90
2021,07,29,15,09,27.90
2021,07,29,15,10,27.90
2021,07,29,15,11,27.90
2021,07,29,15,12,27.90
2021,07,29,15,13,28.00
2021,07,29,15,14,28.10
2021,07,29,15,15,28.10
2021,07,29,15,16,28.20
2021,07,29,15,17,28.20
2021,07,29,15,18,28.30
2021,07,29,15,19,28.30
2021,07,29,15,20,28.40
2021,07,29,15,21,28.40
2021,07,29,15,22,28.50
2021,07,29,15,23,28.60
2021,07,29,15,24,28.70
2021,07,29,15,25,28.70
2021,07,29,15,26,28.80
2021,07,29,15,27,28.80
2021,07,29,15,28,28.80
2021,07,29,15,29,28.80
2021,07,29,15,30,28.80
2021,07,29,15,31,28.80
2021,07,29,15,32,28.70
2021,07,29,15,33,28.70
2021,07,29,15,34,28.70
2021,07,29,15,35,28.80
2021,07,29,15,36,28.80
2021,07,29,15,37,28.80
2021,07,29,15,38,28.80
2021,07,29,15,39,28.90
2021,07,29,15,40,28.90
2021,07,29,15,41,29.00
2021,07,29,15,42,29.10
2021,07,29,15,43,29.10
2021,07,29,15,44,29.20
2021,07,29,15,45,29.30
2021,07,29,15,46,29.40
2021,07,29,15,47,29.40
2021,07,29,15,48,29.50
2021,07,29,15,49,29.60
2021,07,29,15,50,29.70
2021,07,29,15,51,29.70
2021,07,29,15,52,29.70
2021,07,29,15,53,29.60
2021,07,29,15,54,29.60
2021,07,29,15,55,29.50
2021,07,29,15,56,29.50
2021,07,29,15,57,29.50
2021,07,29,15,58,29.60
2021,07,29,15,59,29.60
2021,07,29,16,00,29.60
2021,07,29,16,01,29.70
2021,07,29,16,02,29.80
2021,07,29,16,03,29.80
2021,07,29,16,04,29.90
2021,07,29,16,05,29.90
2021,07,29,16,06,30.00
2021,07,29,16,07,30.00
2021,07,29,16,08,30.00
2021,07,29,16,09,30.10
2021,07,29,16,10,30.10
2021,07,29,16,11,30.10
2021,07,29,16,12,30.10
2021,07,29,16,13,30.10
2021,07,29,16,14,30.10
2021,07,29,16,15,30.10
2021,07,29,16,16,30.10
2021,07,29,16,17,30.10
2021,07,29,16,18,30.10
2021,07,29,16,19,30.00
2021,07,29,16,20,30.00
2021,07,29,16,21,29.90
2021,07,29,16,22,29.90
2021,07,29,16,23,29.90
2021,07,29,16,24,29.80
2021,07,29,16,25,29.80
2021,07,29,16,26,29.90
2021,07,29,16,27,29.90
2021,07,29,16,28,30.00
2021,07,29,16,29,30.00
2021,07,29,16,30,30.10
2021,07,29,16,31,30.10
2021,07,29,16,32,30.20
2021,07,29,16,33,30.20
2021,07,29,16,34,30.20
2021,07,29,16,35,30.20
2021,07,29,16,36,30.30
2021,07,29,16,37,30.30
2021,07,29,16,38,30.40
2021,07,29,16,39,30.50
2021,07,29,16,40,30.50
2021,07,29,16,41,30.50
2021,07,29,16,42,30.60
2021,07,29,16,43,30.60
2021,07,29,16,44,30.60
2021,07,29,16,45,30.70
2021,07,29,16,46,30.70
2021,07,29,16,47,30.70
2021,07,29,16,48,30.70
2021,07,29,16,49,30.80
2021,07,29,16,50,30.80
2021,07,29,16,51,30.90
2021,07,29,16,52,31.00
2021,07,29,16,53,31.00
2021,07,29,16,54,31.10
2021,07,29,16,55,31.10
2021,07,29,16,56,31.10
2021,07,29,16,57,31.10
2021,07,29,16,58,31.20
2021,07,29,16,59,31.20
2021,07,29,17,00,31.20
2021,07,29,17,01,31.20
2021,07,29,17,02,31.20
2021,07,29,17,03,31.30
2021,07,29,17,04,31.30
2021,07,29,17,05,31.30
2021,07,29,17,06,31.30
2021,07,29,17,07,31.40
2021,07,29,17,08,31.40
2021,07,29,17,09,31.40
2021,07,29,17,10,31.40
2021,07,29,17,11,31.30
2021,07,29,17,12,31.30
2021,07,29,17,13,31.30
2021,07,29,17,14,31.20
2021,07,29,17,15,31.20
2021,07,29,17,16,31.20
2021,07,29,17,17,31.20
2021,07,29,17,18,31.20
2021,07,29,17,19,31.20